map of EBU home
EBU - Airport
Location
City:  St-Étienne, Rhône-Alpes, France
Name:St-Étienne Bouthéon Airport
ICAO:LFMH
IATA:EBU

Details
Type:Airport (Aerodrome, Airfield)
Use:Public/Civil
Latitude:45°32'03"N (45.534050)
Longitude:4°17'50"E (4.297311)
Elevation:1325 ft (404 m)
Variation:1.57°E (WMM2015v2 magnetic declination)
0.16° annual change
Runways:1
Longest:7546 × 148 ft (2300 × 45 m)

Time
Time Zone:UTC+1 (DST+2)
Local Time:

Weather
METAR:LFMH 041400Z AUTO 04003KT CAVOK 02/M05 Q1026 NOSIG
TAF:LFMH 041400Z 0415/0515 06003KT CAVOK PROB40
TEMPO 0502/0506 2000 BR BKN050

Related Locations
Nearby:
Farthest:CHT: 12306 mi / 19805 km
Waitangi [Tuuta], CIT, NZ

Find:

   beyond  
but within

Other Information
Maps:
NOTAMs:
Links:
Sources:

  
  • flag of France
  • flag of Rhône-Alpes
  

Sectional Chart

Flight Planning
at skyvector.com

Satellite Image

Google Maps Satellite view

 

Copyright © 2004-2019 Karl L. Swartz. All rights reserved.
The Great Circle Mapper name and logo are trademarks of the Great Circle Mapper.
All other trademarks mentioned herein belong to their respective owners.
Please see credits for attibutions and further copyright information.

  Follow gcmap on Facebook Follow gcmap on Twitter GCmap on LinkedIn

hCard Microformat

Geo Microformat